Ainsworth, NE

12:04 AM CDT on June 24, 2017 (GMT -0500)
Ainsworth Municipal

Weather History for KANW - May, 2012

Change the Weather History Date:

Friday, May 4, 2012

  Actual Average Record
Temperature  
Mean Temperature 64 °F -  
Max Temperature 74 °F 62 °F 87 °F (2000)
Min Temperature 53 °F 41 °F 28 °F (2013)
Degree Days  
Heating Degree Days 2    
Growing Degree Days 14 (Base 50)    
Moisture  
Dew Point 59 °F    
Average Humidity 86    
Maximum Humidity 99    
Minimum Humidity 67    
Precipitation  
Precipitation 0.00 in - - ()
Sea Level Pressure  
Sea Level Pressure 29.86 in    
Wind  
Wind Speed 7 mph (ENE)    
Max Wind Speed 16 mph    
Max Gust Speed 21 mph    
Visibility 7 miles    
Events Rain    
Averages and records for this station are not official NWS values.
T = Trace of Precipitation, MM = Missing Value Source: NWS Daily Summary

Daily Weather History Graph

Daily Weather History Graph

Search for Another Location

Airport or City:

Trip Planner

Search our weather history database for the weather conditions in past years. The results will help you decide how hot, cold, wet, or windy it might be!

Date:

Astronomy

May. 04, 2012 Rise Set
Actual Time 6:30 AM CDT 8:44 PM CDT
Civil Twilight 5:58 AM CDT 9:15 PM CDT
Nautical Twilight 5:20 AM CDT 9:53 PM CDT
Astronomical Twilight 4:38 AM CDT 10:36 PM CDT
Moon 7:23 PM CDT (5/4) 5:13 AM CDT (5/4)
Length of Visible Light 15h 16m
Length of Day
14h 14m
Waxing Gibbous, 97% of the Moon is Illuminated
May 4
Waxing Gibbous
May 5
Full
May 12
Last Quarter
May 20
New
May 28
First Quarter

Hourly Weather History & Observations

Time (CDT) Temp. Dew Point Humidity Pressure Visibility Wind Dir Wind Speed Gust Speed Precip Events Conditions
12:15 AM 56.3 °F 50.2 °F 80% 29.90 in 7.0 mi ENE 4.6 mph - N/A   Clear
12:35 AM 55.4 °F 49.5 °F 80% 29.90 in 10.0 mi ENE 4.6 mph - N/A   Clear
12:55 AM 54.9 °F 49.6 °F 83% 29.89 in 10.0 mi East 5.8 mph - N/A   Clear
1:15 AM 55.0 °F 50.4 °F 84% 29.88 in 10.0 mi East 6.9 mph - N/A   Clear
1:35 AM 55.4 °F 50.5 °F 84% 29.88 in 10.0 mi East 9.2 mph - N/A   Clear
1:55 AM 55.4 °F 51.3 °F 86% 29.87 in 10.0 mi East 8.1 mph - N/A   Clear
2:15 AM 55.4 °F 51.8 °F 88% 29.86 in 10.0 mi East 8.1 mph - N/A   Clear
2:35 AM 55.0 °F 52.0 °F 89% 29.85 in 10.0 mi East 9.2 mph - N/A   Clear
2:55 AM 54.5 °F 52.3 °F 92% 29.83 in 10.0 mi East 10.4 mph - N/A   Clear
3:15 AM 54.9 °F 52.9 °F 93% 29.83 in 10.0 mi East 6.9 mph - N/A   Clear
3:35 AM 55.0 °F 53.6 °F 95% 29.83 in 10.0 mi East 8.1 mph - N/A   Clear
3:55 AM 54.9 °F 53.8 °F 96% 29.83 in 7.0 mi East 8.1 mph - N/A   Clear
4:15 AM 54.5 °F 53.8 °F 97% 29.83 in 7.0 mi East 6.9 mph - N/A   Clear
4:35 AM 54.0 °F 53.6 °F 99% 29.83 in 5.0 mi East 6.9 mph - N/A   Clear
4:55 AM 53.8 °F 53.6 °F 99% 29.84 in 5.0 mi ENE 3.5 mph - N/A   Clear
5:15 AM 54.0 °F 53.6 °F 99% 29.85 in 7.0 mi NW 5.8 mph - N/A   Clear
5:35 AM 54.7 °F 54.5 °F 99% 29.85 in 4.0 mi North 3.5 mph - N/A   Mostly Cloudy
5:55 AM 55.8 °F 55.6 °F 99% 29.85 in 5.0 mi NNE 4.6 mph - N/A   Overcast
6:15 AM 56.3 °F 55.6 °F 97% 29.85 in 7.0 mi ENE 4.6 mph - N/A   Overcast
6:35 AM 56.3 °F 55.6 °F 97% 29.85 in 5.0 mi East 4.6 mph - N/A   Overcast
6:55 AM 56.7 °F 56.1 °F 98% 29.87 in 4.0 mi East 4.6 mph - N/A   Overcast
7:15 AM 56.7 °F 56.1 °F 98% 29.87 in 4.0 mi ENE 5.8 mph - N/A   Overcast
7:35 AM 56.7 °F 56.3 °F 99% 29.88 in 3.0 mi ENE 4.6 mph - N/A   Overcast
7:55 AM 57.2 °F 56.5 °F 97% 29.88 in 3.0 mi ENE 6.9 mph - N/A   Overcast
8:15 AM 56.8 °F 56.3 °F 98% 29.89 in 2.0 mi NE 6.9 mph - N/A   Overcast
8:35 AM 57.6 °F 57.4 °F 99% 29.88 in 2.0 mi ENE 6.9 mph - N/A   Overcast
8:55 AM 57.9 °F 57.6 °F 99% 29.87 in 2.0 mi ENE 8.1 mph - N/A   Overcast
9:15 AM 58.6 °F 58.1 °F 98% 29.87 in 2.0 mi ENE 4.6 mph - N/A   Overcast
9:35 AM 60.3 °F 59.9 °F 99% 29.85 in 2.5 mi East 6.9 mph - N/A   Overcast
9:55 AM 62.4 °F 60.1 °F 92% 29.84 in 4.0 mi ESE 8.1 mph - N/A   Overcast
10:15 AM 64.2 °F 61.7 °F 91% 29.84 in 4.0 mi SE 8.1 mph - N/A   Overcast
10:35 AM 66.0 °F 62.4 °F 88% 29.84 in 4.0 mi SE 8.1 mph - N/A   Overcast
10:55 AM 67.3 °F 63.0 °F 86% 29.84 in 4.0 mi South 5.8 mph - N/A   Overcast
11:15 AM 67.8 °F 62.4 °F 83% 29.85 in 5.0 mi South 3.5 mph - N/A   Haze
11:35 AM 68.0 °F 63.5 °F 85% 29.85 in 5.0 mi South 5.8 mph - N/A   Overcast
11:55 AM 68.0 °F 63.5 °F 85% 29.85 in 5.0 mi SSW 8.1 mph - N/A   Overcast
12:15 PM 68.2 °F 64.2 °F 87% 29.85 in 5.0 mi SSE 5.8 mph - N/A   Overcast
12:35 PM 68.9 °F 64.0 °F 84% 29.86 in 7.0 mi South 4.6 mph - N/A   Overcast
12:55 PM 68.9 °F 63.9 °F 84% 29.87 in 7.0 mi WNW 3.5 mph - N/A   Overcast
1:15 PM 68.0 °F 64.6 °F 89% 29.87 in 4.0 mi NNW 3.5 mph - N/A Rain Light Rain
1:35 PM 67.1 °F 65.8 °F 96% 29.87 in 2.5 mi NNW 6.9 mph - N/A   Drizzle
1:55 PM 67.1 °F 66.4 °F 98% 29.87 in 2.5 mi North 9.2 mph - N/A   Light Drizzle
2:15 PM 65.5 °F 64.8 °F 98% 29.86 in 3.0 mi NE 15.0 mph 18.4 mph N/A   Overcast
2:35 PM 65.5 °F 63.3 °F 93% 29.85 in 7.0 mi NE 12.7 mph - N/A   Overcast
2:55 PM 67.1 °F 62.6 °F 85% 29.84 in 7.0 mi ENE 10.4 mph - N/A   Mostly Cloudy
3:15 PM 69.4 °F 63.3 °F 81% 29.83 in 10.0 mi ENE 8.1 mph - N/A   Scattered Clouds
3:35 PM 71.1 °F 63.5 °F 77% 29.83 in 10.0 mi ENE 6.9 mph - N/A   Clear
3:55 PM 71.6 °F 63.5 °F 76% 29.83 in 10.0 mi ENE 9.2 mph 16.1 mph N/A   Clear
4:15 PM 72.9 °F 64.4 °F 75% 29.83 in 7.0 mi NE 10.4 mph - N/A   Clear
4:35 PM 73.4 °F 64.4 °F 73% 29.83 in 10.0 mi ENE 8.1 mph 16.1 mph N/A   Scattered Clouds
4:55 PM 73.6 °F 64.8 °F 74% 29.82 in 10.0 mi ENE 10.4 mph 17.3 mph N/A   Scattered Clouds
5:15 PM 73.4 °F 64.4 °F 73% 29.82 in 10.0 mi ENE 9.2 mph 17.3 mph N/A   Clear
5:35 PM 74.1 °F 64.6 °F 72% 29.82 in 10.0 mi East 11.5 mph 16.1 mph N/A   Scattered Clouds
5:55 PM 74.1 °F 63.9 °F 70% 29.83 in 10.0 mi ENE 8.1 mph - N/A   Scattered Clouds
6:15 PM 74.3 °F 63.5 °F 69% 29.83 in 10.0 mi ENE 10.4 mph 17.3 mph N/A   Mostly Cloudy
6:35 PM 73.2 °F 62.2 °F 68% 29.84 in 10.0 mi NE 12.7 mph 18.4 mph N/A   Scattered Clouds
6:55 PM 73.4 °F 62.6 °F 69% 29.84 in 10.0 mi NE 13.8 mph - N/A   Scattered Clouds
7:15 PM 72.7 °F 61.2 °F 67% 29.84 in 10.0 mi NNE 12.7 mph - N/A   Clear
7:35 PM 72.0 °F 61.5 °F 70% 29.84 in 10.0 mi NE 12.7 mph - N/A   Clear
7:55 PM 71.2 °F 61.2 °F 70% 29.84 in 10.0 mi NE 11.5 mph - N/A   Clear
8:15 PM 70.7 °F 61.2 °F 72% 29.85 in 10.0 mi NE 11.5 mph - N/A   Scattered Clouds
8:35 PM 70.3 °F 62.1 °F 75% 29.84 in 10.0 mi NE 11.5 mph - N/A   Overcast
8:55 PM 70.0 °F 62.6 °F 77% 29.85 in 10.0 mi NE 13.8 mph 20.7 mph N/A   Overcast
9:15 PM 67.1 °F 61.2 °F 81% 29.85 in 10.0 mi NE 16.1 mph 19.6 mph N/A   Overcast
9:35 PM 66.2 °F 61.3 °F 84% 29.87 in 10.0 mi NE 16.1 mph - N/A   Overcast
9:55 PM 66.2 °F 61.7 °F 85% 29.87 in 10.0 mi NE 12.7 mph - N/A   Overcast
10:15 PM 66.0 °F 61.2 °F 84% 29.88 in 10.0 mi ENE 10.4 mph 17.3 mph N/A   Overcast
10:35 PM 65.7 °F 60.8 °F 84% 29.89 in 10.0 mi ENE 11.5 mph 17.3 mph N/A   Overcast
10:55 PM 64.9 °F 60.4 °F 85% 29.90 in 10.0 mi ENE 10.4 mph - N/A   Overcast
11:15 PM 63.9 °F 59.0 °F 84% 29.90 in 10.0 mi ENE 9.2 mph - N/A   Mostly Cloudy
11:35 PM 63.1 °F 59.2 °F 87% 29.90 in 10.0 mi NE 6.9 mph - N/A   Mostly Cloudy
11:55 PM 61.7 °F 60.3 °F 95% 29.90 in 10.0 mi ENE 5.8 mph - N/A   Scattered Clouds